TimeCST,TemperatureF,Dew PointF,Humidity,Sea Level PressureIn,VisibilityMPH,Wind Direction,Wind SpeedMPH,Gust SpeedMPH,PrecipitationIn,Events,Conditions,WindDirDegrees,DateUTC
12:53 AM,35.1,26.1,70,29.86,10.0,East,3.5,-,N/A,,Clear,80,2012-12-01 06:53:00
1:53 AM,30.9,25.0,79,29.83,10.0,North,3.5,-,N/A,,Clear,360,2012-12-01 07:53:00
2:53 AM,30.9,25.0,79,29.84,10.0,SW,3.5,-,N/A,,Clear,220,2012-12-01 08:53:00
3:53 AM,30.9,25.0,79,29.83,10.0,WSW,3.5,-,N/A,,Clear,250,2012-12-01 09:53:00
4:53 AM,33.1,27.0,78,29.82,10.0,WNW,3.5,-,N/A,,Clear,300,2012-12-01 10:53:00
5:53 AM,33.1,27.0,78,29.86,10.0,WSW,3.5,-,N/A,,Clear,240,2012-12-01 11:53:00
6:53 AM,33.8,28.4,81,29.82,10.0,Calm,Calm,-,N/A,,Clear,0,2012-12-01 12:53:00
7:53 AM,37.0,28.0,70,29.89,10.0,Calm,Calm,-,N/A,,Mostly Cloudy,0,2012-12-01 13:53:00
8:53 AM,37.9,28.0,68,29.90,10.0,Calm,Calm,-,N/A,,Clear,0,2012-12-01 14:53:00
9:53 AM,42.1,28.0,58,29.89,10.0,NW,5.8,-,N/A,,Clear,320,2012-12-01 15:53:00
10:53 AM,53.1,28.9,40,29.88,10.0,West,5.8,-,N/A,,Clear,280,2012-12-01 16:53:00
11:53 AM,63.0,30.9,30,29.84,10.0,WNW,11.5,-,N/A,,Clear,290,2012-12-01 17:53:00
12:53 PM,69.1,33.1,26,29.79,10.0,West,12.7,-,N/A,,Clear,270,2012-12-01 18:53:00
1:53 PM,71.6,32.0,23,29.79,10.0,WNW,19.6,26.5,N/A,,Clear,300,2012-12-01 19:53:00
2:53 PM,71.6,30.2,22,29.80,10.0,WNW,23.0,29.9,N/A,,Clear,300,2012-12-01 20:53:00
3:53 PM,69.1,30.0,23,29.81,10.0,NW,13.8,-,N/A,,Clear,320,2012-12-01 21:53:00
4:53 PM,61.0,30.9,32,29.86,10.0,NW,6.9,-,N/A,,Clear,310,2012-12-01 22:53:00
5:53 PM,54.0,30.0,40,29.89,10.0,NW,3.5,-,N/A,,Clear,310,2012-12-01 23:53:00
6:53 PM,48.0,28.0,46,29.91,10.0,WNW,3.5,-,N/A,,Clear,290,2012-12-02 00:53:00
7:53 PM,39.9,27.0,60,29.94,10.0,Calm,Calm,-,N/A,,Clear,0,2012-12-02 01:53:00
8:53 PM,35.1,25.0,67,29.96,10.0,Calm,Calm,-,N/A,,Clear,0,2012-12-02 02:53:00
9:53 PM,30.9,23.0,72,29.97,10.0,North,4.6,-,N/A,,Clear,360,2012-12-02 03:53:00
10:53 PM,28.0,21.9,78,29.97,10.0,NW,5.8,-,N/A,,Clear,320,2012-12-02 04:53:00
11:53 PM,27.0,21.9,81,29.97,10.0,NW,3.5,-,N/A,,Clear,310,2012-12-02 05:53:00